Regional Weather Roundup
Issued by NWS Green Bay, WI

Home | Current Version | Previous Version | Text Only | Print | Product List | Glossary On
Versions: 1 2 3 4 5 6 7 8 9 10 11 12 13 14 15 16 17 18 19 20 21 22 23 24 25 26 27 28 29 30 31 32 33 34 35 36 37 38 39 40 41 42 43 44 45 46 47 48 49 50
000
ASUS43 KGRB 231300
RWRGRB

NORTH-CENTRAL AND NORTHEAST WISCONSIN REGIONAL WEATHER ROUNDUP
NATIONAL WEATHER SERVICE GREEN BAY WI
800 AM CDT SAT JUL 23 2016

WIZ005-009-010>012-018-019-231400-
NORTH CENTRAL WISCONSIN

CITY           SKY/WX    TMP DP  RH WIND       PRES   REMARKS
IRONWOOD       SUNNY     66  64  94 E3        30.00F
MANITOWISH WTR NOT AVBL
ARBOR VITAE    NOT AVBL
EAGLE RIVER    NOT AVBL
LAND O LAKES   NOT AVBL
RHINELANDER    SUNNY     73  67  81 E5        30.04F
PHILLIPS       SUNNY     71  64  79 E3        30.02F
ANTIGO         NOT AVBL
TOMAHAWK       SUNNY     71  68  89 CALM      30.04S
MERRILL        SUNNY     70  69  97 NE3       30.02F
$$

WIZ013-073-231400-
NORTHEAST WISCONSIN

CITY           SKY/WX    TMP DP  RH WIND       PRES   REMARKS
IRON MOUNTAIN  SUNNY     71  58  63 NW5       30.01R
MARINETTE      MOSUNNY   73  62  68 N5        30.00R
$$

WIZ017-030-035>037-045-231400-
CENTRAL WISCONSIN

CITY           SKY/WX    TMP DP  RH WIND       PRES   REMARKS
MEDFORD        NOT AVBL
WAUSAU         SUNNY     74  68  81 CALM      29.99F
MOSINEE        SUNNY     73  70  88 NE5       30.02S
MARSHFIELD     SUNNY     77  67  71 E6        30.00F
WISC RAPIDS    SUNNY     77  66  68 E7        30.00F
STEVENS POINT  NOT AVBL
WAUPACA        NOT AVBL
SHAWANO        NOT AVBL
CLINTONVILLE   SUNNY     73  68  83 NE3       29.99F
WAUTOMA        SUNNY     74  69  85 CALM      29.99F
$$

WIZ038-039-048-051-231400-
FOX VALLEY

CITY           SKY/WX    TMP DP  RH WIND       PRES   REMARKS
NWS GREEN BAY  SUNNY     76  69  79 CALM      29.99R
APPLETON       MOSUNNY   77  61  57 VRB6      29.99R
OSHKOSH          N/A     79  70  74 NE6       29.98F
FOND DU LAC    FOG       74  73  97 CALM      29.99S VSB 1/4
$$

WIZ022-050-052-231400-
EAST CENTRAL WISCONSIN

CITY           SKY/WX    TMP DP  RH WIND       PRES   REMARKS
EPHRAIM        FAIR      74  61  64 N8        29.98S
WASHINGTON ISL NOT AVBL
STURGEON BAY   MOSUNNY   75  65  70 NW5       30.00R
MANITOWOC      NOT AVBL
SHEBOYGAN      MOSUNNY   78  72  81 CALM      29.98S
$$

LMZ563-521-522-541>543-231400-
LAKESHORE

STATION/POSITION TIME  TEMP    WIND        PRES    VSBY  WAVE
                       AIR SEA DIR/SP/G                  HT/PER
                 (UTC) (F)     (DEG/KT/KT) (MB)    (MI)  (FT/S)
SHEBOYGAN LKSHOR 1200   75     280/  3/  3 1014.9F
KEWAUNEE LKSHORE 1200   71     310/  2/  4 1014.4F
NORTHPORT PIER   1200   73     310/  8/  9 1014.9F
N MID LAKE BUOY  1150   69 68  280/  4/  6 1014.4R         1/ 5
S GREEN BAY BUOY 1200   73 74   10/  2/  2   N/A
CHAMBERS ISLAND  1200   77     350/  2/  4 1015.2
MENOMINEE LKSHOR 1200   72      CALM  /  1 1014.2F
$$




USA.gov is the U.S. government's official web portal to all federal, state and local government web resources and services.